Time,TemperatureF,DewpointF,PressureIn,WindDirection,WindDirectionDegrees,WindSpeedMPH,WindSpeedGustMPH,Humidity,HourlyPrecipIn,Conditions,Clouds,dailyrainin,SolarRadiationWatts/m^2,SoftwareType,DateUTC
2013-04-16 00:07:00,70.5,68.0,30.05,SW,234,1.0,7.0,92,0.00,,,0.00,0,weatherlink.com 1.10,2013-04-16 10:07:00,
2013-04-16 00:22:00,70.6,68.0,30.05,West,261,3.0,5.0,91,0.00,,,0.00,0,weatherlink.com 1.10,2013-04-16 10:22:00,
2013-04-16 00:37:00,70.7,68.0,30.04,SW,232,2.0,4.0,91,0.00,,,0.00,0,weatherlink.com 1.10,2013-04-16 10:37:00,
2013-04-16 00:52:00,70.6,68.0,30.04,SW,235,1.0,4.0,91,0.00,,,0.00,0,weatherlink.com 1.10,2013-04-16 10:52:00,
2013-04-16 01:07:00,70.7,68.0,30.04,SW,235,1.0,3.0,92,0.00,,,0.00,0,weatherlink.com 1.10,2013-04-16 11:07:00,
2013-04-16 01:22:00,70.4,68.0,30.03,SW,235,1.0,2.0,92,0.00,,,0.00,0,weatherlink.com 1.10,2013-04-16 11:22:00,
2013-04-16 01:37:00,70.3,68.0,30.03,SW,235,1.0,1.0,93,0.00,,,0.00,0,weatherlink.com 1.10,2013-04-16 11:37:00,
2013-04-16 01:52:00,70.2,69.0,30.03,SW,235,3.0,3.0,94,0.00,,,0.00,0,weatherlink.com 1.10,2013-04-16 11:52:00,
2013-04-16 02:08:00,69.9,68.0,30.02,SW,235,2.0,4.0,93,0.00,,,0.00,0,weatherlink.com 1.10,2013-04-16 12:08:00,
2013-04-16 02:23:00,70.0,68.0,30.01,SW,235,1.0,2.0,94,0.00,,,0.00,0,weatherlink.com 1.10,2013-04-16 12:23:00,
2013-04-16 02:38:00,70.1,68.0,30.01,SW,235,1.0,2.0,94,0.00,,,0.00,0,weatherlink.com 1.10,2013-04-16 12:38:00,
2013-04-16 02:53:00,70.1,69.0,30.00,SW,235,0.0,1.0,95,0.00,,,0.00,0,weatherlink.com 1.10,2013-04-16 12:53:00,
2013-04-16 03:08:00,70.1,69.0,30.00,SW,235,1.0,2.0,95,0.00,,,0.00,0,weatherlink.com 1.10,2013-04-16 13:08:00,
2013-04-16 03:23:00,70.1,69.0,29.99,SW,235,1.0,2.0,95,0.00,,,0.00,0,weatherlink.com 1.10,2013-04-16 13:23:00,
2013-04-16 03:38:00,70.0,69.0,29.99,SW,235,1.0,2.0,95,0.00,,,0.00,0,weatherlink.com 1.10,2013-04-16 13:38:00,
2013-04-16 03:53:00,69.9,69.0,29.98,SW,235,2.0,2.0,95,0.00,,,0.00,0,weatherlink.com 1.10,2013-04-16 13:53:00,
2013-04-16 04:08:00,70.0,69.0,29.99,SW,235,2.0,2.0,95,0.00,,,0.00,0,weatherlink.com 1.10,2013-04-16 14:08:00,
2013-04-16 04:23:00,69.9,69.0,30.00,SW,235,1.0,2.0,95,0.00,,,0.00,0,weatherlink.com 1.10,2013-04-16 14:23:00,
2013-04-16 04:38:00,69.9,69.0,30.00,SW,235,2.0,2.0,96,0.00,,,0.00,0,weatherlink.com 1.10,2013-04-16 14:38:00,
2013-04-16 04:53:00,69.9,69.0,30.00,WSW,239,1.0,3.0,96,0.00,,,0.00,0,weatherlink.com 1.10,2013-04-16 14:53:00,
2013-04-16 05:07:00,69.9,69.0,30.01,WSW,239,1.0,3.0,96,0.00,,,0.00,0,weatherlink.com 1.10,2013-04-16 15:07:00,
2013-04-16 05:22:00,70.0,69.0,30.01,WSW,239,2.0,3.0,96,0.00,,,0.00,0,weatherlink.com 1.10,2013-04-16 15:22:00,
2013-04-16 05:37:00,69.9,69.0,30.02,WSW,250,0.0,2.0,96,0.00,,,0.00,0,weatherlink.com 1.10,2013-04-16 15:37:00,
2013-04-16 05:52:00,69.7,69.0,30.02,WSW,249,0.0,1.0,96,0.00,,,0.00,0,weatherlink.com 1.10,2013-04-16 15:52:00,
2013-04-16 06:08:00,69.5,68.0,30.04,WSW,250,0.0,1.0,96,0.00,,,0.00,0,weatherlink.com 1.10,2013-04-16 16:08:00,
2013-04-16 06:23:00,69.5,68.0,30.04,WSW,249,1.0,2.0,96,0.00,,,0.00,12,weatherlink.com 1.10,2013-04-16 16:23:00,
2013-04-16 06:38:00,69.7,69.0,30.04,WSW,238,1.0,1.0,96,0.00,,,0.00,51,weatherlink.com 1.10,2013-04-16 16:38:00,
2013-04-16 06:53:00,71.1,70.0,30.05,WSW,238,0.0,1.0,96,0.00,,,0.00,105,weatherlink.com 1.10,2013-04-16 16:53:00,
2013-04-16 07:09:00,73.0,71.0,30.05,West,281,0.0,2.0,93,0.00,,,0.00,167,weatherlink.com 1.10,2013-04-16 17:09:00,
2013-04-16 07:24:00,74.0,72.0,30.06,West,281,1.0,2.0,92,0.00,,,0.00,232,weatherlink.com 1.10,2013-04-16 17:24:00,
2013-04-16 07:39:00,74.8,72.0,30.06,ESE,107,1.0,3.0,91,0.00,,,0.00,274,weatherlink.com 1.10,2013-04-16 17:39:00,
2013-04-16 07:54:00,75.5,73.0,30.06,East,90,2.0,4.0,90,0.00,,,0.00,339,weatherlink.com 1.10,2013-04-16 17:54:00,
2013-04-16 08:09:00,76.5,73.0,30.07,East,97,2.0,4.0,89,0.00,,,0.00,408,weatherlink.com 1.10,2013-04-16 18:09:00,
2013-04-16 08:24:00,76.6,72.0,30.07,East,82,1.0,4.0,85,0.00,,,0.00,466,weatherlink.com 1.10,2013-04-16 18:24:00,
2013-04-16 08:54:00,77.5,72.0,30.07,East,90,2.0,5.0,84,0.00,,,0.00,578,weatherlink.com 1.10,2013-04-16 18:54:00,
2013-04-16 09:09:00,77.7,73.0,30.08,SE,141,3.0,5.0,84,0.00,,,0.00,642,weatherlink.com 1.10,2013-04-16 19:09:00,
2013-04-16 09:24:00,78.4,73.0,30.07,ESE,114,3.0,7.0,83,0.00,,,0.00,624,weatherlink.com 1.10,2013-04-16 19:24:00,
2013-04-16 09:40:00,79.2,74.0,30.08,East,83,4.0,7.0,85,0.00,,,0.00,673,weatherlink.com 1.10,2013-04-16 19:40:00,
2013-04-16 09:55:00,79.3,73.0,30.08,ESE,110,5.0,7.0,80,0.00,,,0.00,768,weatherlink.com 1.10,2013-04-16 19:55:00,
2013-04-16 10:10:00,79.4,74.0,30.07,ESE,109,2.0,7.0,82,0.00,,,0.00,816,weatherlink.com 1.10,2013-04-16 20:10:00,
2013-04-16 10:26:00,80.5,73.0,30.07,ESE,103,6.0,6.0,78,0.00,,,0.00,861,weatherlink.com 1.10,2013-04-16 20:26:00,
2013-04-16 10:40:00,80.8,74.0,30.08,East,94,5.0,7.0,79,0.00,,,0.00,898,weatherlink.com 1.10,2013-04-16 20:40:00,
2013-04-16 10:55:00,80.5,73.0,30.07,ESE,114,3.0,7.0,78,0.00,,,0.00,849,weatherlink.com 1.10,2013-04-16 20:55:00,
2013-04-16 11:10:00,81.6,74.0,30.07,ESE,105,3.0,8.0,77,0.00,,,0.00,1000,weatherlink.com 1.10,2013-04-16 21:10:00,
2013-04-16 11:26:00,81.2,73.0,30.07,ESE,108,5.0,7.0,77,0.00,,,0.00,997,weatherlink.com 1.10,2013-04-16 21:26:00,
2013-04-16 11:40:00,81.3,73.0,30.06,ESE,110,3.0,7.0,77,0.00,,,0.00,888,weatherlink.com 1.10,2013-04-16 21:40:00,
2013-04-16 11:55:00,81.5,74.0,30.06,ENE,76,7.0,7.0,77,0.00,,,0.00,1092,weatherlink.com 1.10,2013-04-16 21:55:00,
2013-04-16 12:10:00,82.2,74.0,30.05,SE,128,6.0,8.0,75,0.00,,,0.00,1037,weatherlink.com 1.10,2013-04-16 22:10:00,
2013-04-16 12:25:00,81.1,73.0,30.05,East,93,6.0,8.0,75,0.00,,,0.00,921,weatherlink.com 1.10,2013-04-16 22:25:00,
2013-04-16 12:40:00,81.1,73.0,30.05,East,96,4.0,8.0,76,0.00,,,0.00,823,weatherlink.com 1.10,2013-04-16 22:40:00,
2013-04-16 12:55:00,81.8,72.0,30.05,SE,136,3.0,7.0,73,0.00,,,0.00,1076,weatherlink.com 1.10,2013-04-16 22:55:00,
2013-04-16 13:10:00,81.7,73.0,30.04,SE,129,3.0,8.0,74,0.00,,,0.00,759,weatherlink.com 1.10,2013-04-16 23:10:00,
2013-04-16 13:25:00,81.3,72.0,30.04,ESE,114,4.0,8.0,74,0.00,,,0.00,849,weatherlink.com 1.10,2013-04-16 23:25:00,
2013-04-16 13:40:00,82.2,72.0,30.04,East,82,5.0,8.0,72,0.00,,,0.00,921,weatherlink.com 1.10,2013-04-16 23:40:00,
2013-04-16 13:55:00,82.2,72.0,30.03,ESE,103,7.0,7.0,70,0.00,,,0.00,947,weatherlink.com 1.10,2013-04-16 23:55:00,
2013-04-16 14:10:00,82.8,73.0,30.03,East,100,4.0,8.0,73,0.00,,,0.00,932,weatherlink.com 1.10,2013-04-17 00:10:00,
2013-04-16 14:25:00,82.1,71.0,30.03,ENE,78,5.0,8.0,68,0.00,,,0.00,977,weatherlink.com 1.10,2013-04-17 00:25:00,
2013-04-16 14:40:00,81.6,71.0,30.02,East,83,6.0,8.0,70,0.00,,,0.00,881,weatherlink.com 1.10,2013-04-17 00:40:00,
2013-04-16 14:55:00,82.1,71.0,30.02,East,97,3.0,7.0,68,0.00,,,0.00,835,weatherlink.com 1.10,2013-04-17 00:55:00,
2013-04-16 15:10:00,82.0,70.0,30.02,ESE,105,5.0,7.0,67,0.00,,,0.00,302,weatherlink.com 1.10,2013-04-17 01:10:00,
2013-04-16 15:25:00,80.9,71.0,30.02,East,92,4.0,7.0,71,0.00,,,0.00,264,weatherlink.com 1.10,2013-04-17 01:25:00,
2013-04-16 15:40:00,80.9,72.0,30.02,East,89,5.0,6.0,73,0.00,,,0.00,464,weatherlink.com 1.10,2013-04-17 01:40:00,
2013-04-16 15:55:00,79.9,72.0,30.03,ESE,105,4.0,7.0,77,0.00,,,0.00,494,weatherlink.com 1.10,2013-04-17 01:55:00,
2013-04-16 16:11:00,80.1,73.0,30.03,ESE,104,2.0,7.0,78,0.00,,,0.00,545,weatherlink.com 1.10,2013-04-17 02:11:00,
2013-04-16 16:26:00,80.0,72.0,30.03,East,92,2.0,7.0,77,0.00,,,0.00,547,weatherlink.com 1.10,2013-04-17 02:26:00,
2013-04-16 16:41:00,79.9,72.0,30.03,East,85,6.0,9.0,77,0.00,,,0.00,476,weatherlink.com 1.10,2013-04-17 02:41:00,
2013-04-16 16:56:00,79.1,71.0,30.03,East,99,2.0,7.0,77,0.00,,,0.00,250,weatherlink.com 1.10,2013-04-17 02:56:00,
2013-04-16 17:11:00,78.5,72.0,30.03,East,98,4.0,9.0,80,0.00,,,0.00,236,weatherlink.com 1.10,2013-04-17 03:11:00,
2013-04-16 17:26:00,77.8,72.0,30.04,ENE,78,4.0,8.0,81,0.00,,,0.00,214,weatherlink.com 1.10,2013-04-17 03:26:00,
2013-04-16 17:41:00,77.6,72.0,30.04,East,85,8.0,8.0,83,0.00,,,0.00,128,weatherlink.com 1.10,2013-04-17 03:41:00,
2013-04-16 17:56:00,76.8,72.0,30.05,ESE,119,7.0,9.0,84,0.00,,,0.00,65,weatherlink.com 1.10,2013-04-17 03:56:00,
2013-04-16 18:10:00,76.5,72.0,30.05,SE,134,2.0,8.0,85,0.00,,,0.00,51,weatherlink.com 1.10,2013-04-17 04:10:00,
2013-04-16 18:25:00,76.1,71.0,30.05,ESE,114,4.0,8.0,84,0.00,,,0.00,25,weatherlink.com 1.10,2013-04-17 04:25:00,
2013-04-16 18:40:00,75.8,71.0,30.06,ESE,109,5.0,8.0,85,0.00,,,0.00,9,weatherlink.com 1.10,2013-04-17 04:40:00,
2013-04-16 18:55:00,75.6,71.0,30.07,East,97,4.0,7.0,86,0.00,,,0.00,0,weatherlink.com 1.10,2013-04-17 04:55:00,
2013-04-16 19:10:00,75.5,71.0,30.07,ENE,77,4.0,9.0,87,0.00,,,0.00,0,weatherlink.com 1.10,2013-04-17 05:10:00,
2013-04-16 19:25:00,75.5,71.0,30.08,SE,132,7.0,10.0,86,0.00,,,0.00,0,weatherlink.com 1.10,2013-04-17 05:25:00,
2013-04-16 19:41:00,75.4,71.0,30.08,SE,133,8.0,9.0,86,0.00,,,0.00,0,weatherlink.com 1.10,2013-04-17 05:41:00,
2013-04-16 19:56:00,75.2,71.0,30.09,ESE,108,8.0,10.0,86,0.00,,,0.00,0,weatherlink.com 1.10,2013-04-17 05:56:00,
2013-04-16 20:11:00,75.2,71.0,30.09,ESE,106,7.0,8.0,87,0.00,,,0.00,0,weatherlink.com 1.10,2013-04-17 06:11:00,
2013-04-16 20:26:00,75.0,71.0,30.10,East,96,5.0,9.0,87,0.00,,,0.00,0,weatherlink.com 1.10,2013-04-17 06:26:00,
2013-04-16 20:41:00,74.9,71.0,30.10,East,93,3.0,8.0,88,0.00,,,0.00,0,weatherlink.com 1.10,2013-04-17 06:41:00,
2013-04-16 20:56:00,74.8,71.0,30.11,East,92,5.0,11.0,88,0.00,,,0.00,0,weatherlink.com 1.10,2013-04-17 06:56:00,
2013-04-16 21:11:00,74.8,71.0,30.11,East,89,5.0,10.0,89,0.00,,,0.00,0,weatherlink.com 1.10,2013-04-17 07:11:00,
2013-04-16 21:26:00,74.6,71.0,30.11,SSE,152,7.0,12.0,88,0.00,,,0.00,0,weatherlink.com 1.10,2013-04-17 07:26:00,
2013-04-16 21:41:00,74.7,71.0,30.12,ENE,72,6.0,11.0,88,0.00,,,0.00,0,weatherlink.com 1.10,2013-04-17 07:41:00,
2013-04-16 22:11:00,74.7,71.0,30.12,SSW,203,2.0,8.0,88,0.00,,,0.00,0,weatherlink.com 1.10,2013-04-17 08:11:00,
2013-04-16 22:26:00,74.5,71.0,30.12,ESE,109,2.0,11.0,88,0.00,,,0.00,0,weatherlink.com 1.10,2013-04-17 08:26:00,
2013-04-16 22:41:00,74.4,71.0,30.12,East,94,5.0,9.0,88,0.00,,,0.00,0,weatherlink.com 1.10,2013-04-17 08:41:00,
2013-04-16 22:56:00,74.2,71.0,30.12,East,88,7.0,10.0,88,0.00,,,0.00,0,weatherlink.com 1.10,2013-04-17 08:56:00,
2013-04-16 23:11:00,74.2,71.0,30.12,South,186,3.0,10.0,88,0.00,,,0.00,0,weatherlink.com 1.10,2013-04-17 09:11:00,
2013-04-16 23:26:00,74.3,71.0,30.12,SSE,159,6.0,12.0,88,0.00,,,0.00,0,weatherlink.com 1.10,2013-04-17 09:26:00,
2013-04-16 23:41:00,74.3,71.0,30.11,SE,143,6.0,11.0,88,0.00,,,0.00,0,weatherlink.com 1.10,2013-04-17 09:41:00,
2013-04-16 23:56:00,74.2,71.0,30.10,ESE,114,7.0,10.0,88,0.00,,,0.00,0,weatherlink.com 1.10,2013-04-17 09:56:00,